カタログに戻る

COSMOS 2251 DEB

運用中LEO
NORAD 34574·DEBRIS·🇷🇺 Russia

打ち上げ Jun 16, 1993 から Plesetsk Cosmodrome

Loading…

次のパス (今後24時間)

TLE

最新Source: Space-Track

元期: Sep 14, 2026, 22:01 UTC

1 34574U 93036VL  26257.91744661  .00003737  00000-0  55560-3 0  9998
2 34574  74.0658 226.4331 0063938 178.2307 213.3515 14.73952601928448

AllMySatでCOSMOS 2251 DEBをリアルタイム追跡

Download on the App Store